Flag for India Weather past 2 weeks in Balurghat, West Bengal, India

Now
82 °F

Passing clouds.


Feels Like: 94 °F
Forecast: 78 / 86 °F
Wind: No wind

Location: Lucknow / Amausi

Current Time: Aug 30, 2015 at 5:48:11 AM

Latest Report: Aug 30, 2015 at 5:00 AM


Visibility: 2 mi

Pressure: 29.56 "Hg

Humidity: 94%

Dew point: 81 °F

Location of BalurghatLocation

Historic Weather in Balurghat — Graph

°F

Balurghat temperature yesterday

Maximum temperature yesterday: 95 °F (at 11:00 AM)
Minimum temperature yesterday: 82 °F (at 3:00 AM)
Average temperature yesterday: 88 °F

Past Weeks' High & Low Weather Summary

 TemperatureHumidityPressure
High99 °F (Aug 26, 1:00 PM)100% (Aug 16, 6:30 AM)29.68 "Hg (Aug 16, 6:30 AM)
Low75 °F (Aug 22, 8:30 AM)50% (Aug 25, 2:30 PM)29.50 "Hg (Aug 22, 5:00 PM)
Average87 °F82%29.59 "Hg
* Reported Aug 15 4:00 AM — Aug 30 4:00 AM, Balurghat, Weather by CustomWeather, © 2015

Note: Actual official high and low records may vary slightly from our data, if they occured in-between our weather recording intervals... More about our weather records

Advertising

Balurghat weather history for previous 24 hours

 ConditionsComfort  
Time TempWeatherWind HumidityBarometerVisibility
4:00 AM
Sun, Aug 30
82 °FPassing clouds.No wind89%29.56 "Hg2 mi
3:00 AM82 °FPassing clouds.No wind84%29.56 "Hg2 mi
2:00 AM84 °FPartly cloudy.No wind79%29.59 "Hg2 mi
1:00 AM84 °FPartly cloudy.No wind79%29.59 "Hg2 mi
12:00 AM84 °FPartly cloudy.No wind74%29.59 "Hg2 mi
9:00 PM
Sat, Aug 29
86 °FPartly cloudy.No wind84%29.59 "Hg3 mi
8:30 PM86 °FPartly cloudy.2 mph79%29.59 "Hg3 mi
8:00 PM86 °FPartly cloudy.No wind79%29.56 "Hg3 mi
7:30 PM86 °FPartly cloudy.No wind79%29.53 "Hg3 mi
7:00 PM88 °FPartly cloudy.No wind75%29.53 "Hg3 mi
6:30 PM91 °FBroken clouds.No wind80%29.50 "Hg3 mi
6:00 PM91 °FBroken clouds.No wind80%29.50 "Hg3 mi
5:00 PM95 °FBroken clouds.3 mph71%29.50 "Hg3 mi
4:30 PM95 °FBroken clouds.No wind71%29.50 "Hg3 mi
3:30 PM95 °FBroken clouds.2 mph71%29.53 "Hg3 mi
3:00 PM95 °FBroken clouds.3 mph67%29.53 "Hg3 mi
2:30 PM95 °FBroken clouds.3 mph67%29.56 "Hg3 mi
1:30 PM91 °FBroken clouds.6 mph71%29.59 "Hg3 mi
11:30 AM95 °FBroken clouds.No wind67%29.62 "Hg3 mi
11:00 AM95 °FScattered clouds.1 mph71%29.62 "Hg3 mi
10:30 AM93 °FScattered clouds.No wind71%29.65 "Hg3 mi
10:00 AM91 °FScattered clouds.2 mph75%29.65 "Hg3 mi
9:30 AM91 °FScattered clouds.1 mph80%29.65 "Hg3 mi
9:00 AM90 °FScattered clouds.1 mph79%29.65 "Hg3 mi
8:30 AM88 °FScattered clouds.1 mph79%29.62 "Hg2 mi
8:00 AM86 °FScattered clouds.No wind89%29.62 "Hg2 mi
7:30 AM84 °FScattered clouds.No wind94%29.62 "Hg2 mi
7:00 AM84 °FScattered clouds.No wind94%29.59 "Hg2 mi
6:30 AM82 °FScattered clouds.No wind94%29.59 "Hg2 mi
6:00 AM82 °FPassing clouds.No wind94%29.59 "Hg2 mi
5:30 AM82 °FPassing clouds.No wind94%29.59 "Hg2 mi
5:00 AM82 °FPassing clouds.No wind94%29.56 "Hg2 mi
Weather by CustomWeather, © 2015

See weather overviewHow to use our weather pages